162P/Siding Spring (2010)

Japanese version
Home page
Updated on September 18, 2011

---------------------------------------------------------------------

* Profile

* Pictures

* Orbital Elements

The following orbital elements are taken from MPC 75721:

Epoch 2010 Mar. 25.0 TT = JDT 2455280.5
T 2010 Mar. 8.4227 TT                                   MPC
q   1.233070             (2000.0)            P               Q
n   0.1847970      Peri.  356.3064      +0.8827749      -0.4026631
a   3.052620       Node    31.2401      +0.4421039      +0.5377775
e   0.596062       Incl.   27.8168      +0.1589105      +0.7407144
P   5.33
From 1368 observations 1990-2011, mean residual 0".4.

* Finding Charts

* Magnitudes Graph

        H = 13.7  G = 0.15

---------------------------------------------------------------------

The orbital elements are published at the MPC Ephemerides and Orbital Elements.
The charts are made with StellaNavigator Ver.2.0 for Windows (AstroArts / ASCII).
The magnitudes graphs are made with Comet for Windows.

---------------------------------------------------------------------

Copyright(C) Seiichi Yoshida (comet@aerith.net). All rights reserved.